TimeCDT,TemperatureF,Dew PointF,Humidity,Sea Level PressureIn,VisibilityMPH,Wind Direction,Wind SpeedMPH,Gust SpeedMPH,PrecipitationIn,Events,Conditions,WindDirDegrees,DateUTC
12:53 AM,39.0,26.1,60,29.90,10.0,NE,9.2,-,N/A,,Mostly Cloudy,50,2013-03-17 05:53:00
1:53 AM,37.0,26.1,65,29.89,10.0,NE,6.9,-,N/A,,Mostly Cloudy,40,2013-03-17 06:53:00
2:53 AM,35.1,25.0,67,29.90,10.0,NE,9.2,-,N/A,,Clear,40,2013-03-17 07:53:00
3:53 AM,34.0,25.0,70,29.90,10.0,North,4.6,-,N/A,,Overcast,10,2013-03-17 08:53:00
5:53 AM,32.0,25.0,75,29.88,10.0,NNE,6.9,-,0.00,,Partly Cloudy,20,2013-03-17 10:53:00
6:53 AM,32.0,25.0,75,29.86,10.0,NE,5.8,-,N/A,,Overcast,40,2013-03-17 11:53:00
7:53 AM,30.0,25.0,82,29.87,10.0,NE,4.6,-,N/A,,Clear,40,2013-03-17 12:53:00
8:53 AM,32.0,25.0,75,29.89,10.0,SE,4.6,-,N/A,,Clear,140,2013-03-17 13:53:00
9:53 AM,33.1,25.0,72,29.88,10.0,Calm,Calm,-,N/A,,Clear,0,2013-03-17 14:53:00
10:53 AM,37.9,27.0,65,29.85,10.0,Calm,Calm,-,N/A,,Clear,0,2013-03-17 15:53:00
11:53 AM,41.0,28.0,60,29.81,10.0,Calm,Calm,-,N/A,,Clear,0,2013-03-17 16:53:00
12:53 PM,46.9,27.0,46,29.75,10.0,South,5.8,-,N/A,,Clear,180,2013-03-17 17:53:00
1:53 PM,51.1,28.0,41,29.72,10.0,South,8.1,-,N/A,,Clear,190,2013-03-17 18:53:00
2:53 PM,57.0,30.0,36,29.62,10.0,SSE,11.5,20.7,N/A,,Clear,150,2013-03-17 19:53:00
3:53 PM,57.9,30.9,36,29.56,10.0,SSE,16.1,23.0,N/A,,Clear,150,2013-03-17 20:53:00
4:53 PM,64.0,32.0,30,29.50,10.0,South,18.4,26.5,N/A,,Clear,170,2013-03-17 21:53:00
5:53 PM,61.0,32.0,34,29.48,10.0,SSE,13.8,23.0,N/A,,Clear,150,2013-03-17 22:53:00
6:53 PM,61.0,32.0,34,29.51,10.0,East,10.4,-,N/A,,Clear,80,2013-03-17 23:53:00
7:53 PM,55.9,32.0,40,29.53,10.0,East,16.1,23.0,N/A,,Clear,90,2013-03-18 00:53:00
8:53 PM,50.0,33.1,52,29.55,10.0,ESE,13.8,23.0,N/A,,Clear,110,2013-03-18 01:53:00
9:53 PM,48.9,34.0,56,29.56,10.0,SE,6.9,-,N/A,,Clear,130,2013-03-18 02:53:00
10:53 PM,48.0,35.1,61,29.60,10.0,NNE,6.9,-,N/A,,Partly Cloudy,30,2013-03-18 03:53:00
11:53 PM,46.9,35.1,63,29.60,10.0,SE,3.5,-,N/A,,Clear,140,2013-03-18 04:53:00